Home   Weather   Bern   Past weeks

Flag for Switzerland Past Weather in Bern, Bern, Switzerland — Yesterday and Last 2 Weeks

37 °F


Feels Like: 37 °F
Forecast: 31 / 53 °F
Wind: 2 mph from North

Location: Bern / Belp

Current Time: Oct 22, 2016 at 1:39:48 AM

Latest Report: Oct 22, 2016 at 1:20 AM

Visibility: N/A

Pressure: 30.01 "Hg (28.09 "Hg at 533m altitude)

Humidity: 100%

Dew Point: 37 °F

Location of BernLocation

Past Weather in Bern — Graph


Bern Temperature Yesterday

Maximum temperature yesterday: 54 °F (at 4:20 PM)
Minimum temperature yesterday: 37 °F (at 2:50 AM)
Average temperature yesterday: 44 °F

High & Low Weather Summary for the Past Weeks

High63 °F (Oct 15, 3:20 PM)100% (Oct 7, 12:20 AM)30.27 "Hg (Oct 7, 12:20 AM)
Low27 °F (Oct 12, 4:20 AM)51% (Oct 20, 4:20 PM)29.62 "Hg (Oct 14, 5:20 PM)
Average45 °F89%30.05 "Hg
* Reported Oct 7 12:20 AM — Oct 22 12:20 AM, Bern, Weather by CustomWeather, © 2016

Note: Actual official high and low records may vary slightly from our data, if they occured in-between our weather recording intervals... More about our weather records


Bern Weather History for the Previous 24 Hours

Scroll right to see more
Time TempWeatherWind HumidityBarometerVisibility
12:20 AM
Sat, Oct 22
37 °FPassing clouds.1 mph93%30.01 "HgN/A
11:50 PM
Fri, Oct 21
37 °FPassing clouds.No wind100%30.01 "HgN/A
11:20 PM39 °FPassing clouds.2 mph93%30.04 "HgN/A
10:50 PM39 °FPassing clouds.1 mph93%30.04 "HgN/A
10:20 PM39 °FPassing clouds.1 mph93%30.04 "HgN/A
9:50 PM39 °FPassing clouds.1 mph87%30.01 "HgN/A
9:20 PM39 °FPassing clouds.No wind87%30.01 "HgN/A
8:50 PM43 °FPassing clouds.3 mph81%30.01 "HgN/A
8:20 PM45 °FPassing clouds.5 mph76%30.01 "HgN/A
7:50 PM46 °FPassing clouds.1 mph71%30.01 "HgN/A
7:20 PM46 °FPartly cloudy.6 mph76%30.01 "HgN/A
6:50 PM48 °FPassing clouds.3 mph76%29.98 "HgN/A
6:20 PM50 °FPartly sunny.2 mph67%29.98 "HgN/A
5:50 PM50 °FPartly sunny.6 mph67%29.98 "HgN/A
5:20 PM52 °FBroken clouds.3 mph62%29.98 "HgN/A
4:50 PM52 °FScattered clouds.3 mph62%29.98 "HgN/A
4:20 PM54 °FScattered clouds.5 mph63%29.98 "HgN/A
3:50 PM50 °FScattered clouds.5 mph71%29.98 "HgN/A
3:20 PM48 °FBroken clouds.1 mph76%29.98 "HgN/A
2:50 PM50 °FRain showers. Broken clouds.13 mph71%29.98 "HgN/A
2:20 PM50 °FBroken clouds.8 mph67%29.98 "HgN/A
1:50 PM52 °FBroken clouds.6 mph67%29.98 "HgN/A
1:20 PM50 °FBroken clouds.6 mph76%29.98 "HgN/A
12:50 PM50 °FBroken clouds.7 mph71%29.98 "HgN/A
12:20 PM46 °FBroken clouds.6 mph87%30.01 "HgN/A
11:50 AM45 °FDrizzle. Broken clouds.3 mph93%30.01 "HgN/A
11:20 AM45 °FDrizzle. Broken clouds.3 mph87%30.01 "HgN/A
10:50 AM43 °FPartly sunny.2 mph93%29.98 "HgN/A
10:20 AM43 °FPartly sunny.2 mph93%29.98 "HgN/A
9:50 AM43 °FBroken clouds.No wind93%29.98 "HgN/A
9:20 AM41 °FBroken clouds.2 mph100%29.98 "HgN/A
8:50 AM41 °FLight rain. Broken clouds.1 mph93%29.98 "HgN/A
8:20 AM41 °FLight rain. Partly sunny.1 mph93%29.98 "HgN/A
7:50 AM41 °FPassing clouds.3 mph93%29.98 "HgN/A
7:20 AM41 °FPassing clouds.2 mph93%29.98 "HgN/A
6:50 AM41 °FPassing clouds.2 mph87%29.98 "HgN/A
6:20 AM39 °FPassing clouds.2 mph100%29.98 "HgN/A
5:50 AM39 °FPassing clouds.5 mph93%29.95 "HgN/A
5:20 AM39 °FMostly cloudy.7 mph93%29.98 "HgN/A
4:50 AM39 °FPartly cloudy.5 mph93%29.98 "HgN/A
4:20 AM39 °FPassing clouds.1 mph93%29.98 "HgN/A
3:50 AM39 °FMostly cloudy.5 mph93%29.98 "HgN/A
3:20 AM39 °FMostly cloudy.3 mph93%29.98 "HgN/A
2:50 AM37 °FPassing clouds.1 mph93%30.01 "HgN/A
2:20 AM39 °FPassing clouds.1 mph93%29.98 "HgN/A
1:50 AM41 °FPassing clouds.7 mph87%30.01 "HgN/A
1:20 AM41 °FOvercast.3 mph93%30.01 "HgN/A
Weather by CustomWeather, © 2016

See weather overviewHow to use our weather pages